AQUA

Last updated on Wed Oct 22 2025 00:02:14 GMT+0000 (Coordinated Universal Time)

1 27424U 02022A 25294.60150104 .00002010 00000+0 41404-3 0 9992 2 27424 98.3948 254.6629 0001664 58.2847 29.0070 14.61621668248415
UTC large
Height (km)
Speed (km/s)
/
Latitude / Longitude
Inclination (degrees)
Orbital Period (minutes)
Azimuth
Elevation
Range (km)
Doppler Factor

Next 0 passes for location: London (51.5072 / 0.1276)

Sorry there are no passes over London.